Location: Durham
(54.7770°N, 1.5720°W)
Time: 14:09:21
(UTC+01:00)

ISS - Visible Passes

Search period start: 30 July 2014 00:00
Search period end: 09 August 2014 00:00
Orbit: 411 x 419 km, 51.6° (Epoch: 30 July)

Date Brightness Start Highest point End Pass type
(mag) Time Alt. Az. Time Alt. Az. Time Alt. Az.
30 Jul -2.6 01:45:37 36° SSE 01:45:37 36° SSE 01:48:25 10° E visible
30 Jul -3.0 03:18:29 10° W 03:21:41 49° S 03:24:58 10° ESE visible
31 Jul -1.3 00:58:28 17° ESE 00:58:28 17° ESE 00:59:33 10° E visible
31 Jul -3.1 02:31:20 26° WSW 02:32:56 50° S 02:36:12 10° ESE visible
31 Jul -2.6 04:06:15 10° W 04:09:20 34° SSW 04:12:25 10° SE visible
01 Aug -3.1 01:44:16 47° SSE 01:44:16 47° SSE 01:47:25 10° E visible
01 Aug -2.9 03:17:25 10° W 03:20:36 41° SSW 03:23:47 10° ESE visible
02 Aug -1.4 00:57:27 19° ESE 00:57:27 19° ESE 00:58:36 10° E visible
02 Aug -3.0 02:30:20 26° WSW 02:31:50 46° S 02:35:05 10° ESE visible
02 Aug -2.0 04:05:25 10° W 04:08:07 22° SSW 04:10:48 10° SSE visible
03 Aug -2.2 01:44:18 31° SE 01:44:18 31° SE 01:46:20 10° ESE visible
03 Aug -2.4 03:17:17 15° WSW 03:19:25 29° SSW 03:22:22 10° SE visible
03 Aug -2.4 23:14:59 10° SW 23:17:55 29° SSE 23:18:03 29° SSE visible
04 Aug -0.6 00:51:01 10° WSW 00:51:03 10° WSW 00:51:03 10° WSW visible
04 Aug -0.9 02:33:24 13° SE 02:33:24 13° SE 02:33:47 10° SE visible
04 Aug -1.4 04:06:34 13° SW 04:06:44 13° SW 04:08:23 10° S visible
04 Aug -2.1 22:26:32 10° SSW 22:29:13 22° SSE 22:31:54 10° E visible
05 Aug -3.0 00:02:15 10° WSW 00:05:08 44° SSW 00:05:08 44° SSW visible
05 Aug -1.6 21:38:18 10° S 21:40:32 17° SSE 21:42:47 10° ESE visible
05 Aug -2.9 23:13:31 10° WSW 23:16:41 41° SSE 23:18:21 23° ESE visible
06 Aug -1.5 00:49:53 10° W 00:51:13 21° WSW 00:51:13 21° WSW visible
06 Aug -2.6 22:24:51 10° SW 22:27:55 34° SSE 22:31:00 10° E visible
07 Aug -3.1 00:01:04 10° WSW 00:04:07 48° SSW 00:04:07 48° SSW visible
07 Aug -3.1 23:12:15 10° WSW 23:15:30 49° S 23:16:54 28° ESE visible
08 Aug -1.1 00:48:47 10° W 00:49:45 17° WSW 00:49:45 17° WSW visible
08 Aug -2.9 22:23:28 10° WSW 22:26:41 45° S 22:29:38 12° E visible
08 Aug -0.6 23:59:55 10° W 00:00:15 12° W 00:00:00 11° W visible
